Time,TemperatureF,DewpointF,PressureIn,WindDirection,WindDirectionDegrees,WindSpeedMPH,WindSpeedGustMPH,Humidity,HourlyPrecipIn,Conditions,Clouds,dailyrainin,SoftwareType,DateUTC
2013-04-15 00:05:00,71.2,63.2,29.97,NNE,14,0.0,2.0,76,0.00,,,0.00,Wunderground v.1.15,2013-04-15 04:05:00,
2013-04-15 00:15:00,71.4,63.1,29.97,NNE,15,0.0,0.0,75,0.00,,,0.00,Wunderground v.1.15,2013-04-15 04:15:00,
2013-04-15 00:25:00,71.6,63.3,29.97,NNE,15,0.0,0.0,75,0.00,,,0.00,Wunderground v.1.15,2013-04-15 04:25:00,
2013-04-15 00:30:00,71.7,63.7,29.97,NNE,15,0.0,0.0,76,0.00,,,0.00,Wunderground v.1.15,2013-04-15 04:30:00,
2013-04-15 00:35:00,71.7,63.4,29.96,NNE,15,0.0,0.0,75,0.00,,,0.00,Wunderground v.1.15,2013-04-15 04:35:00,
2013-04-15 00:40:00,71.8,63.4,29.97,NNE,15,0.0,0.0,75,0.00,,,0.00,Wunderground v.1.15,2013-04-15 04:40:00,
2013-04-15 00:45:00,71.9,63.5,29.96,NNE,15,0.0,0.0,75,0.00,,,0.00,Wunderground v.1.15,2013-04-15 04:45:00,
2013-04-15 00:50:00,72.0,64.0,29.97,NNE,15,0.0,0.0,76,0.00,,,0.00,Wunderground v.1.15,2013-04-15 04:50:00,
2013-04-15 00:55:00,72.0,64.0,29.96,NNE,15,0.0,0.0,76,0.00,,,0.00,Wunderground v.1.15,2013-04-15 04:55:00,
2013-04-15 01:00:00,72.0,63.6,29.96,NNE,15,0.0,1.0,75,0.00,,,0.00,Wunderground v.1.15,2013-04-15 05:00:00,
2013-04-15 01:05:00,72.1,63.7,29.96,NNE,15,1.0,1.0,75,0.00,,,0.00,Wunderground v.1.15,2013-04-15 05:05:00,
2013-04-15 01:10:00,72.1,63.7,29.96,NNE,15,0.0,1.0,75,0.00,,,0.00,Wunderground v.1.15,2013-04-15 05:10:00,
2013-04-15 01:15:00,72.1,63.7,29.96,NNE,15,0.0,1.0,75,0.00,,,0.00,Wunderground v.1.15,2013-04-15 05:15:00,
2013-04-15 01:20:00,72.0,63.6,29.96,NNE,15,0.0,1.0,75,0.00,,,0.00,Wunderground v.1.15,2013-04-15 05:20:00,
2013-04-15 01:25:00,72.0,63.6,29.96,NNE,15,0.0,1.0,75,0.00,,,0.00,Wunderground v.1.15,2013-04-15 05:25:00,
2013-04-15 01:35:00,71.9,63.5,29.96,NNE,15,0.0,1.0,75,0.00,,,0.00,Wunderground v.1.15,2013-04-15 05:35:00,
2013-04-15 01:40:00,72.0,63.6,29.96,NNE,15,0.0,1.0,75,0.00,,,0.00,Wunderground v.1.15,2013-04-15 05:40:00,
2013-04-15 01:45:00,71.9,63.5,29.96,NNE,15,0.0,1.0,75,0.00,,,0.00,Wunderground v.1.15,2013-04-15 05:45:00,
2013-04-15 01:55:00,71.9,63.5,29.95,NNE,15,0.0,1.0,75,0.00,,,0.00,Wunderground v.1.15,2013-04-15 05:55:00,
2013-04-15 02:00:00,71.8,63.4,29.95,NNE,15,0.0,1.0,75,0.00,,,0.00,Wunderground v.1.15,2013-04-15 06:00:00,
2013-04-15 02:05:00,71.7,63.7,29.96,NNE,15,0.0,1.0,76,0.00,,,0.00,Wunderground v.1.15,2013-04-15 06:05:00,
2013-04-15 02:10:00,71.7,63.7,29.96,NNE,15,0.0,1.0,76,0.00,,,0.00,Wunderground v.1.15,2013-04-15 06:10:00,
2013-04-15 02:15:00,71.6,63.6,29.95,NNE,15,0.0,1.0,76,0.00,,,0.00,Wunderground v.1.15,2013-04-15 06:15:00,
2013-04-15 02:20:00,71.5,63.5,29.95,NNE,15,0.0,1.0,76,0.00,,,0.00,Wunderground v.1.15,2013-04-15 06:20:00,
2013-04-15 02:30:00,71.4,63.4,29.95,NNE,15,0.0,1.0,76,0.00,,,0.00,Wunderground v.1.15,2013-04-15 06:30:00,
2013-04-15 02:35:00,71.3,63.3,29.95,NNE,15,0.0,1.0,76,0.00,,,0.00,Wunderground v.1.15,2013-04-15 06:35:00,
2013-04-15 02:40:00,71.2,63.2,29.95,NNE,15,0.0,1.0,76,0.00,,,0.00,Wunderground v.1.15,2013-04-15 06:40:00,
2013-04-15 02:50:00,71.0,63.4,29.95,NNE,15,0.0,1.0,77,0.00,,,0.00,Wunderground v.1.15,2013-04-15 06:50:00,
2013-04-15 02:55:00,70.9,63.3,29.95,NNE,15,0.0,1.0,77,0.00,,,0.00,Wunderground v.1.15,2013-04-15 06:55:00,
2013-04-15 03:00:00,70.8,63.2,29.95,NNE,15,0.0,1.0,77,0.00,,,0.00,Wunderground v.1.15,2013-04-15 07:00:00,
2013-04-15 03:45:00,70.4,62.8,29.94,NNE,15,0.0,1.0,77,0.00,,,0.00,Wunderground v.1.15,2013-04-15 07:45:00,
2013-04-15 03:50:00,70.4,62.8,29.94,NNE,15,0.0,1.0,77,0.00,,,0.00,Wunderground v.1.15,2013-04-15 07:50:00,
2013-04-15 03:55:00,70.4,63.2,29.94,NNE,15,0.0,1.0,78,0.00,,,0.00,Wunderground v.1.15,2013-04-15 07:55:00,
2013-04-15 04:00:00,70.4,63.2,29.94,NNE,15,0.0,1.0,78,0.00,,,0.00,Wunderground v.1.15,2013-04-15 08:00:00,
2013-04-15 04:05:00,70.4,63.2,29.95,NNE,15,0.0,1.0,78,0.00,,,0.00,Wunderground v.1.15,2013-04-15 08:05:00,
2013-04-15 04:10:00,70.4,63.2,29.95,NNE,15,0.0,1.0,78,0.00,,,0.00,Wunderground v.1.15,2013-04-15 08:10:00,
2013-04-15 04:20:00,70.4,63.2,29.95,NNE,15,0.0,1.0,78,0.00,,,0.00,Wunderground v.1.15,2013-04-15 08:20:00,
2013-04-15 04:25:00,70.4,63.2,29.95,NNE,15,0.0,1.0,78,0.00,,,0.00,Wunderground v.1.15,2013-04-15 08:25:00,
2013-04-15 04:40:00,70.4,63.6,29.95,NNE,15,0.0,1.0,79,0.00,,,0.00,Wunderground v.1.15,2013-04-15 08:40:00,
2013-04-15 04:45:00,70.4,63.6,29.95,NNE,15,0.0,1.0,79,0.00,,,0.00,Wunderground v.1.15,2013-04-15 08:45:00,
2013-04-15 04:50:00,70.3,63.1,29.95,NNE,15,0.0,1.0,78,0.00,,,0.00,Wunderground v.1.15,2013-04-15 08:50:00,
2013-04-15 05:00:00,70.3,63.1,29.95,NNE,15,0.0,1.0,78,0.00,,,0.00,Wunderground v.1.15,2013-04-15 09:00:00,
2013-04-15 05:05:00,70.4,63.2,29.95,NNE,15,0.0,1.0,78,0.00,,,0.00,Wunderground v.1.15,2013-04-15 09:05:00,
2013-04-15 05:10:00,70.3,63.1,29.95,NNE,15,0.0,1.0,78,0.00,,,0.00,Wunderground v.1.15,2013-04-15 09:10:00,
2013-04-15 05:20:00,70.3,63.1,29.94,NNE,15,0.0,1.0,78,0.00,,,0.00,Wunderground v.1.15,2013-04-15 09:20:00,
2013-04-15 05:30:00,70.2,63.0,29.94,NNE,15,0.0,1.0,78,0.00,,,0.00,Wunderground v.1.15,2013-04-15 09:30:00,
2013-04-15 05:40:00,70.0,62.8,29.94,NNE,15,0.0,1.0,78,0.00,,,0.00,Wunderground v.1.15,2013-04-15 09:40:00,
2013-04-15 05:45:00,69.8,63.0,29.94,NNE,15,0.0,1.0,79,0.00,,,0.00,Wunderground v.1.15,2013-04-15 09:45:00,
2013-04-15 05:55:00,69.6,63.2,29.94,NNE,15,0.0,1.0,80,0.00,,,0.00,Wunderground v.1.15,2013-04-15 09:55:00,
2013-04-15 06:05:00,69.5,63.4,29.95,NNE,15,0.0,1.0,81,0.00,,,0.00,Wunderground v.1.15,2013-04-15 10:05:00,
2013-04-15 06:10:00,69.5,63.4,29.95,NNE,15,0.0,1.0,81,0.00,,,0.00,Wunderground v.1.15,2013-04-15 10:10:00,
2013-04-15 06:15:00,69.5,63.4,29.95,NNE,15,0.0,1.0,81,0.00,,,0.00,Wunderground v.1.15,2013-04-15 10:15:00,
2013-04-15 06:20:00,69.4,63.3,29.96,NNE,15,0.0,1.0,81,0.00,,,0.00,Wunderground v.1.15,2013-04-15 10:20:00,
2013-04-15 06:25:00,69.4,63.3,29.96,NNE,15,0.0,1.0,81,0.00,,,0.00,Wunderground v.1.15,2013-04-15 10:25:00,
2013-04-15 06:30:00,69.4,63.3,29.96,NNE,15,0.0,1.0,81,0.00,,,0.00,Wunderground v.1.15,2013-04-15 10:30:00,
2013-04-15 06:40:00,69.5,63.4,29.96,NNE,15,0.0,1.0,81,0.00,,,0.00,Wunderground v.1.15,2013-04-15 10:40:00,
2013-04-15 06:45:00,69.4,63.3,29.95,NNE,15,0.0,1.0,81,0.00,,,0.00,Wunderground v.1.15,2013-04-15 10:45:00,
2013-04-15 06:55:00,69.4,63.3,29.96,NNE,29,0.0,1.0,81,0.00,,,0.00,Wunderground v.1.15,2013-04-15 10:55:00,
2013-04-15 07:05:00,69.4,63.3,29.96,SE,144,0.0,1.0,81,0.00,,,0.00,Wunderground v.1.15,2013-04-15 11:05:00,
2013-04-15 07:10:00,69.4,63.3,29.96,SE,144,0.0,1.0,81,0.00,,,0.00,Wunderground v.1.15,2013-04-15 11:10:00,
2013-04-15 07:15:00,69.4,63.3,29.97,SE,145,0.0,2.0,81,0.00,,,0.00,Wunderground v.1.15,2013-04-15 11:15:00,
2013-04-15 07:25:00,69.5,63.4,29.97,SSE,151,1.0,2.0,81,0.00,,,0.00,Wunderground v.1.15,2013-04-15 11:25:00,
2013-04-15 07:35:00,69.8,63.7,29.97,SSE,165,2.0,3.0,81,0.00,,,0.00,Wunderground v.1.15,2013-04-15 11:35:00,
2013-04-15 07:45:00,70.0,63.5,29.96,SSE,154,2.0,3.0,80,0.00,,,0.00,Wunderground v.1.15,2013-04-15 11:45:00,
2013-04-15 07:55:00,70.4,63.9,29.97,South,173,2.0,2.0,80,0.00,,,0.00,Wunderground v.1.15,2013-04-15 11:55:00,
2013-04-15 08:05:00,70.7,64.2,29.95,SE,140,3.0,4.0,80,0.00,,,0.00,Wunderground v.1.15,2013-04-15 12:05:00,
2013-04-15 08:15:00,71.0,64.2,29.96,South,177,5.0,11.0,79,0.00,,,0.00,Wunderground v.1.15,2013-04-15 12:15:00,
2013-04-15 08:25:00,71.4,64.5,29.94,South,174,5.0,7.0,79,0.00,,,0.00,Wunderground v.1.15,2013-04-15 12:25:00,
2013-04-15 08:30:00,71.6,64.4,29.94,SE,138,4.0,4.0,78,0.00,,,0.00,Wunderground v.1.15,2013-04-15 12:30:00,
2013-04-15 08:40:00,72.1,64.1,29.93,South,172,4.0,7.0,76,0.00,,,0.00,Wunderground v.1.15,2013-04-15 12:40:00,
2013-04-15 08:50:00,72.4,63.6,29.94,SE,139,5.0,5.0,74,0.00,,,0.00,Wunderground v.1.15,2013-04-15 12:50:00,
2013-04-15 08:55:00,72.5,63.7,29.96,SW,226,3.0,5.0,74,0.00,,,0.00,Wunderground v.1.15,2013-04-15 12:55:00,
2013-04-15 09:05:00,72.8,64.0,29.98,NNW,331,1.0,1.0,74,0.00,,,0.00,Wunderground v.1.15,2013-04-15 13:05:00,
2013-04-15 09:15:00,73.1,63.9,29.96,NNW,331,0.0,1.0,73,0.00,,,0.00,Wunderground v.1.15,2013-04-15 13:15:00,
2013-04-15 09:20:00,73.4,64.2,29.97,NNW,331,0.0,1.0,73,0.00,,,0.00,Wunderground v.1.15,2013-04-15 13:20:00,
2013-04-15 09:25:00,73.6,64.0,29.97,East,101,0.0,1.0,72,0.00,,,0.00,Wunderground v.1.15,2013-04-15 13:25:00,
2013-04-15 09:30:00,73.9,64.7,29.97,East,101,0.0,1.0,73,0.00,,,0.00,Wunderground v.1.15,2013-04-15 13:30:00,
2013-04-15 09:35:00,74.0,64.4,29.97,East,101,0.0,1.0,72,0.00,,,0.00,Wunderground v.1.15,2013-04-15 13:35:00,
2013-04-15 09:45:00,75.0,65.0,29.98,East,101,0.0,1.0,71,0.00,,,0.00,Wunderground v.1.15,2013-04-15 13:45:00,
2013-04-15 09:55:00,76.1,64.8,29.97,East,101,0.0,2.0,68,0.00,,,0.00,Wunderground v.1.15,2013-04-15 13:55:00,
2013-04-15 10:00:00,76.6,65.2,29.97,ESE,102,1.0,2.0,68,0.00,,,0.00,Wunderground v.1.15,2013-04-15 14:00:00,
2013-04-15 10:05:00,77.1,64.9,29.97,SE,144,2.0,2.0,66,0.00,,,0.00,Wunderground v.1.15,2013-04-15 14:05:00,
2013-04-15 10:10:00,77.8,65.5,29.97,ESE,118,1.0,1.0,66,0.00,,,0.00,Wunderground v.1.15,2013-04-15 14:10:00,
2013-04-15 10:20:00,79.0,65.3,29.97,SSE,159,2.0,2.0,63,0.00,,,0.00,Wunderground v.1.15,2013-04-15 14:20:00,
2013-04-15 10:25:00,79.3,65.6,29.97,SE,138,2.0,2.0,63,0.00,,,0.00,Wunderground v.1.15,2013-04-15 14:25:00,
2013-04-15 10:30:00,80.0,66.3,29.97,ESE,108,1.0,1.0,63,0.00,,,0.00,Wunderground v.1.15,2013-04-15 14:30:00,
2013-04-15 10:40:00,80.8,65.6,29.97,ESE,115,1.0,6.0,60,0.00,,,0.00,Wunderground v.1.15,2013-04-15 14:40:00,
2013-04-15 10:45:00,80.8,66.1,29.97,SE,125,2.0,6.0,61,0.00,,,0.00,Wunderground v.1.15,2013-04-15 14:45:00,
2013-04-15 10:55:00,81.1,66.4,29.98,SSE,149,2.0,4.0,61,0.00,,,0.00,Wunderground v.1.15,2013-04-15 14:55:00,
2013-04-15 11:00:00,81.2,66.9,29.99,SSE,167,2.0,2.0,62,0.00,,,0.00,Wunderground v.1.15,2013-04-15 15:00:00,
2013-04-15 11:05:00,81.4,66.7,29.99,South,180,1.0,2.0,61,0.00,,,0.00,Wunderground v.1.15,2013-04-15 15:05:00,
2013-04-15 11:15:00,81.6,66.8,29.99,SE,126,1.0,2.0,61,0.00,,,0.00,Wunderground v.1.15,2013-04-15 15:15:00,
2013-04-15 11:30:00,81.8,67.5,29.99,South,178,1.0,3.0,62,0.00,,,0.00,Wunderground v.1.15,2013-04-15 15:30:00,
2013-04-15 11:40:00,82.1,67.3,29.99,SSW,203,2.0,3.0,61,0.00,,,0.00,Wunderground v.1.15,2013-04-15 15:40:00,
2013-04-15 11:45:00,82.1,67.3,29.98,SSW,212,2.0,2.0,61,0.00,,,0.00,Wunderground v.1.15,2013-04-15 15:45:00,
2013-04-15 11:50:00,82.5,68.2,29.99,WSW,241,2.0,2.0,62,0.00,,,0.00,Wunderground v.1.15,2013-04-15 15:50:00,
2013-04-15 11:55:00,82.8,68.0,29.99,South,184,1.0,1.0,61,0.00,,,0.00,Wunderground v.1.15,2013-04-15 15:55:00,
2013-04-15 12:05:00,83.5,69.1,29.99,SW,214,2.0,2.0,62,0.00,,,0.00,Wunderground v.1.15,2013-04-15 16:05:00,
2013-04-15 12:10:00,84.0,69.6,29.99,SSW,198,2.0,2.0,62,0.00,,,0.00,Wunderground v.1.15,2013-04-15 16:10:00,
2013-04-15 12:15:00,84.5,70.0,29.99,WSW,239,2.0,2.0,62,0.00,,,0.00,Wunderground v.1.15,2013-04-15 16:15:00,
2013-04-15 12:20:00,84.7,70.2,29.99,East,94,2.0,2.0,62,0.00,,,0.00,Wunderground v.1.15,2013-04-15 16:20:00,
2013-04-15 12:30:00,85.4,70.9,29.99,South,175,0.0,1.0,62,0.00,,,0.00,Wunderground v.1.15,2013-04-15 16:30:00,
2013-04-15 12:40:00,85.7,71.2,29.99,SSE,168,2.0,2.0,62,0.00,,,0.00,Wunderground v.1.15,2013-04-15 16:40:00,
2013-04-15 12:45:00,86.1,71.1,29.98,SSW,201,1.0,2.0,61,0.00,,,0.00,Wunderground v.1.15,2013-04-15 16:45:00,
2013-04-15 12:55:00,86.1,71.6,29.98,SSW,193,2.0,2.0,62,0.00,,,0.00,Wunderground v.1.15,2013-04-15 16:55:00,
2013-04-15 13:05:00,86.8,71.7,29.98,SSW,198,0.0,2.0,61,0.00,,,0.00,Wunderground v.1.15,2013-04-15 17:05:00,
2013-04-15 13:15:00,86.0,71.5,29.99,SSW,207,1.0,1.0,62,0.00,,,0.00,Wunderground v.1.15,2013-04-15 17:15:00,
2013-04-15 13:25:00,84.5,70.5,29.99,NNW,328,1.0,3.0,63,0.00,,,0.00,Wunderground v.1.15,2013-04-15 17:25:00,
2013-04-15 13:30:00,84.2,70.7,29.99,NNW,327,1.0,1.0,64,0.00,,,0.00,Wunderground v.1.15,2013-04-15 17:30:00,
2013-04-15 13:35:00,84.1,70.1,29.99,NNW,327,1.0,1.0,63,0.00,,,0.00,Wunderground v.1.15,2013-04-15 17:35:00,
2013-04-15 13:40:00,84.0,70.0,29.99,NNW,327,0.0,1.0,63,0.00,,,0.00,Wunderground v.1.15,2013-04-15 17:40:00,
2013-04-15 13:45:00,84.0,70.0,29.99,NNW,327,1.0,1.0,63,0.00,,,0.00,Wunderground v.1.15,2013-04-15 17:45:00,
2013-04-15 13:50:00,84.1,69.2,29.99,NNW,327,1.0,1.0,61,0.00,,,0.00,Wunderground v.1.15,2013-04-15 17:50:00,
2013-04-15 13:55:00,83.9,69.0,29.99,NNW,327,1.0,1.0,61,0.00,,,0.00,Wunderground v.1.15,2013-04-15 17:55:00,
2013-04-15 14:00:00,84.1,68.7,29.99,NNW,327,1.0,1.0,60,0.00,,,0.00,Wunderground v.1.15,2013-04-15 18:00:00,
2013-04-15 14:10:00,84.6,69.7,29.99,NNW,327,1.0,1.0,61,0.00,,,0.00,Wunderground v.1.15,2013-04-15 18:10:00,
2013-04-15 14:15:00,84.7,69.3,29.99,WNW,289,0.0,1.0,60,0.00,,,0.00,Wunderground v.1.15,2013-04-15 18:15:00,
2013-04-15 14:20:00,84.8,69.9,29.99,WNW,290,0.0,1.0,61,0.00,,,0.00,Wunderground v.1.15,2013-04-15 18:20:00,
2013-04-15 14:25:00,84.6,69.7,29.99,WNW,292,1.0,1.0,61,0.00,,,0.00,Wunderground v.1.15,2013-04-15 18:25:00,
2013-04-15 14:30:00,84.7,70.2,29.98,WNW,292,1.0,1.0,62,0.00,,,0.00,Wunderground v.1.15,2013-04-15 18:30:00,
2013-04-15 14:35:00,84.9,70.4,29.98,WNW,292,0.0,1.0,62,0.00,,,0.00,Wunderground v.1.15,2013-04-15 18:35:00,
2013-04-15 14:45:00,86.0,71.0,29.98,WNW,292,0.0,1.0,61,0.00,,,0.00,Wunderground v.1.15,2013-04-15 18:45:00,
2013-04-15 14:50:00,86.3,71.3,29.98,WNW,292,0.0,1.0,61,0.00,,,0.00,Wunderground v.1.15,2013-04-15 18:50:00,
2013-04-15 14:55:00,86.2,71.2,29.97,WNW,292,0.0,1.0,61,0.00,,,0.00,Wunderground v.1.15,2013-04-15 18:55:00,
2013-04-15 15:00:00,86.0,71.0,29.97,WNW,292,0.0,1.0,61,0.00,,,0.00,Wunderground v.1.15,2013-04-15 19:00:00,
2013-04-15 15:05:00,86.5,71.5,29.97,WNW,292,0.0,1.0,61,0.00,,,0.00,Wunderground v.1.15,2013-04-15 19:05:00,
2013-04-15 15:15:00,87.4,71.3,29.96,WNW,292,0.0,1.0,59,0.00,,,0.00,Wunderground v.1.15,2013-04-15 19:15:00,
2013-04-15 15:20:00,87.6,72.0,29.96,WNW,292,0.0,1.0,60,0.00,,,0.00,Wunderground v.1.15,2013-04-15 19:20:00,
2013-04-15 15:25:00,88.5,72.3,29.96,WSW,249,0.0,5.0,59,0.00,,,0.00,Wunderground v.1.15,2013-04-15 19:25:00,
2013-04-15 15:30:00,88.7,72.5,29.96,WSW,246,1.0,4.0,59,0.00,,,0.00,Wunderground v.1.15,2013-04-15 19:30:00,
2013-04-15 15:35:00,88.2,72.1,29.96,SW,233,2.0,4.0,59,0.00,,,0.00,Wunderground v.1.15,2013-04-15 19:35:00,
2013-04-15 15:40:00,88.4,72.2,29.96,WSW,245,2.0,2.0,59,0.00,,,0.00,Wunderground v.1.15,2013-04-15 19:40:00,
2013-04-15 15:55:00,88.7,72.5,29.95,SW,223,2.0,4.0,59,0.00,,,0.00,Wunderground v.1.15,2013-04-15 19:55:00,
2013-04-15 16:00:00,88.1,72.5,29.95,WSW,238,2.0,2.0,60,0.00,,,0.00,Wunderground v.1.15,2013-04-15 20:00:00,
2013-04-15 16:05:00,87.9,72.8,29.95,WSW,257,2.0,6.0,61,0.00,,,0.00,Wunderground v.1.15,2013-04-15 20:05:00,
2013-04-15 16:10:00,87.0,72.9,29.95,WSW,250,3.0,3.0,63,0.00,,,0.00,Wunderground v.1.15,2013-04-15 20:10:00,
2013-04-15 16:15:00,86.6,73.0,29.95,WSW,241,4.0,4.0,64,0.00,,,0.00,Wunderground v.1.15,2013-04-15 20:15:00,
2013-04-15 16:25:00,86.4,72.3,29.95,WSW,241,2.0,3.0,63,0.00,,,0.00,Wunderground v.1.15,2013-04-15 20:25:00,
2013-04-15 16:30:00,86.0,72.4,29.94,West,277,2.0,3.0,64,0.00,,,0.00,Wunderground v.1.15,2013-04-15 20:30:00,
2013-04-15 16:35:00,86.0,72.4,29.95,WSW,251,1.0,3.0,64,0.00,,,0.00,Wunderground v.1.15,2013-04-15 20:35:00,
2013-04-15 16:40:00,85.7,72.1,29.95,WSW,251,1.0,1.0,64,0.00,,,0.00,Wunderground v.1.15,2013-04-15 20:40:00,
2013-04-15 16:45:00,85.4,71.8,29.95,WSW,246,1.0,2.0,64,0.00,,,0.00,Wunderground v.1.15,2013-04-15 20:45:00,
2013-04-15 16:50:00,85.0,72.4,29.95,SW,234,1.0,5.0,66,0.00,,,0.00,Wunderground v.1.15,2013-04-15 20:50:00,
2013-04-15 16:55:00,84.7,72.5,29.95,WSW,242,2.0,5.0,67,0.00,,,0.00,Wunderground v.1.15,2013-04-15 20:55:00,
2013-04-15 17:05:00,85.0,72.8,29.95,WSW,242,0.0,1.0,67,0.00,,,0.00,Wunderground v.1.15,2013-04-15 21:05:00,
2013-04-15 17:10:00,85.2,72.1,29.95,SW,225,1.0,2.0,65,0.00,,,0.00,Wunderground v.1.15,2013-04-15 21:10:00,
2013-04-15 17:15:00,84.8,71.7,29.96,SW,231,2.0,2.0,65,0.00,,,0.00,Wunderground v.1.15,2013-04-15 21:15:00,
2013-04-15 17:20:00,84.5,72.3,29.96,WSW,237,2.0,2.0,67,0.00,,,0.00,Wunderground v.1.15,2013-04-15 21:20:00,
2013-04-15 17:25:00,84.6,72.0,29.96,WSW,245,1.0,3.0,66,0.00,,,0.00,Wunderground v.1.15,2013-04-15 21:25:00,
2013-04-15 17:35:00,84.6,72.0,29.96,SW,224,1.0,3.0,66,0.00,,,0.00,Wunderground v.1.15,2013-04-15 21:35:00,
2013-04-15 17:40:00,84.3,72.1,29.96,WSW,248,2.0,2.0,67,0.00,,,0.00,Wunderground v.1.15,2013-04-15 21:40:00,
2013-04-15 17:50:00,83.9,72.2,29.96,SW,235,2.0,2.0,68,0.00,,,0.00,Wunderground v.1.15,2013-04-15 21:50:00,
2013-04-15 18:00:00,83.8,72.5,29.97,SW,230,1.0,1.0,69,0.00,,,0.00,Wunderground v.1.15,2013-04-15 22:00:00,
2013-04-15 18:05:00,83.8,72.5,29.96,SW,230,1.0,1.0,69,0.00,,,0.00,Wunderground v.1.15,2013-04-15 22:05:00,
2013-04-15 18:15:00,83.3,72.5,29.97,SW,230,0.0,1.0,70,0.00,,,0.00,Wunderground v.1.15,2013-04-15 22:15:00,
2013-04-15 18:25:00,82.5,72.1,29.97,SW,233,0.0,1.0,71,0.00,,,0.00,Wunderground v.1.15,2013-04-15 22:25:00,
2013-04-15 18:30:00,82.4,72.5,29.97,SW,235,0.0,2.0,72,0.00,,,0.00,Wunderground v.1.15,2013-04-15 22:30:00,
2013-04-15 18:35:00,82.3,72.4,29.97,SW,235,0.0,2.0,72,0.00,,,0.00,Wunderground v.1.15,2013-04-15 22:35:00,
2013-04-15 18:45:00,81.8,72.3,29.98,SW,235,0.0,1.0,73,0.00,,,0.00,Wunderground v.1.15,2013-04-15 22:45:00,
2013-04-15 18:50:00,81.5,72.0,29.98,SW,235,0.0,1.0,73,0.00,,,0.00,Wunderground v.1.15,2013-04-15 22:50:00,
2013-04-15 19:00:00,81.2,72.1,29.98,SW,236,0.0,1.0,74,0.00,,,0.00,Wunderground v.1.15,2013-04-15 23:00:00,
2013-04-15 19:05:00,81.0,71.9,29.98,SW,236,0.0,1.0,74,0.00,,,0.00,Wunderground v.1.15,2013-04-15 23:05:00,
2013-04-15 19:15:00,80.5,71.4,29.98,SW,236,0.0,1.0,74,0.00,,,0.00,Wunderground v.1.15,2013-04-15 23:15:00,
2013-04-15 19:20:00,80.3,71.6,29.99,SW,236,0.0,1.0,75,0.00,,,0.00,Wunderground v.1.15,2013-04-15 23:20:00,
2013-04-15 19:30:00,79.7,71.5,29.99,SW,236,0.0,1.0,76,0.00,,,0.00,Wunderground v.1.15,2013-04-15 23:30:00,
2013-04-15 19:35:00,79.4,71.2,30.00,SW,236,0.0,1.0,76,0.00,,,0.00,Wunderground v.1.15,2013-04-15 23:35:00,
2013-04-15 19:40:00,79.3,71.1,29.99,SW,236,0.0,1.0,76,0.00,,,0.00,Wunderground v.1.15,2013-04-15 23:40:00,
2013-04-15 19:45:00,79.0,71.2,30.00,SW,236,0.0,1.0,77,0.00,,,0.00,Wunderground v.1.15,2013-04-15 23:45:00,
2013-04-15 19:50:00,78.8,71.0,29.99,SW,236,0.0,1.0,77,0.00,,,0.00,Wunderground v.1.15,2013-04-15 23:50:00,
2013-04-15 20:00:00,78.5,71.1,30.00,SW,236,0.0,1.0,78,0.00,,,0.00,Wunderground v.1.15,2013-04-16 00:00:00,
2013-04-15 20:05:00,78.3,70.9,30.00,SW,236,0.0,1.0,78,0.00,,,0.00,Wunderground v.1.15,2013-04-16 00:05:00,
2013-04-15 20:10:00,78.2,71.2,30.00,SW,236,0.0,1.0,79,0.00,,,0.00,Wunderground v.1.15,2013-04-16 00:10:00,
2013-04-15 20:15:00,78.1,71.1,30.01,SW,236,0.0,1.0,79,0.00,,,0.00,Wunderground v.1.15,2013-04-16 00:15:00,
2013-04-15 20:20:00,78.0,71.0,30.00,SW,236,0.0,1.0,79,0.00,,,0.00,Wunderground v.1.15,2013-04-16 00:20:00,
2013-04-15 20:25:00,77.9,70.9,30.01,SW,236,0.0,1.0,79,0.00,,,0.00,Wunderground v.1.15,2013-04-16 00:25:00,
2013-04-15 20:35:00,77.7,70.7,30.02,SW,236,0.0,1.0,79,0.00,,,0.00,Wunderground v.1.15,2013-04-16 00:35:00,
2013-04-15 20:40:00,77.5,70.5,30.02,SW,236,0.0,1.0,79,0.00,,,0.00,Wunderground v.1.15,2013-04-16 00:40:00,
2013-04-15 20:45:00,77.4,70.4,30.02,SW,236,0.0,1.0,79,0.00,,,0.00,Wunderground v.1.15,2013-04-16 00:45:00,
2013-04-15 20:55:00,77.3,70.3,30.02,SW,236,0.0,1.0,79,0.00,,,0.00,Wunderground v.1.15,2013-04-16 00:55:00,
2013-04-15 21:05:00,77.1,70.1,30.02,SW,236,0.0,1.0,79,0.00,,,0.00,Wunderground v.1.15,2013-04-16 01:05:00,
2013-04-15 21:15:00,76.9,70.3,30.02,SW,236,0.0,1.0,80,0.00,,,0.00,Wunderground v.1.15,2013-04-16 01:15:00,
2013-04-15 21:20:00,76.9,70.3,30.02,SW,236,0.0,1.0,80,0.00,,,0.00,Wunderground v.1.15,2013-04-16 01:20:00,
2013-04-15 21:30:00,76.7,70.4,30.03,SW,236,0.0,1.0,81,0.00,,,0.00,Wunderground v.1.15,2013-04-16 01:30:00,
2013-04-15 21:35:00,76.6,70.3,30.03,SW,236,0.0,1.0,81,0.00,,,0.00,Wunderground v.1.15,2013-04-16 01:35:00,